MPEC 2004-X19 : COMET P/2004 V5 = 2003 YM159 (LINEAR-HILL)
The following Minor Planet Electronic Circular may be linked-to from your own Web pages, but must not otherwise be redistributed electronically.A form allowing access to any MPEC is at the bottom of this page.


M.P.E.C. 2004-X19 Issued 2004 Dec. 5, 23:33 UT The Minor Planet Electronic Circulars contain information on unusual minor planets and routine data on comets. They are published on behalf of Commission 20 of the International Astronomical Union by the Minor Planet Center, Smithsonian Astrophysical Observatory, Cambridge, MA 02138, U.S.A. Supported in part by the Brinson Foundation Prepared using the Tamkin Foundation Computer Network MPC@CFA.HARVARD.EDU URL http://cfa-www.harvard.edu/iau/mpc.html ISSN 1523-6714 COMET P/2004 V5 = 2003 YM159 (LINEAR-HILL) Observations: PK04V05a C2004 11 17.19079 09 37 13.92 +35 16 34.8 18.0 N EX019204 PK04V05a C2004 11 17.19806 09 37 14.13 +35 16 36.1 EX019204 PK04V05a C2004 11 17.20534 09 37 14.37 +35 16 37.3 EX019204 PK04V05a C2004 11 19.78031 09 38 34.98 +35 24 09.0 17.8 T EX019D74 PK04V05a C2004 11 19.79420 09 38 35.40 +35 24 11.8 18.0 T EX019D74 PK04V05a C2004 11 21.05906 09 39 12.62 +35 28 03.5 18.8 N EX019130 PK04V05a C2004 11 21.06532 09 39 12.83 +35 28 04.9 18.8 N EX019130 PK04V05a 2004 11 23.81493 09 40 28.89 +35 37 00.7 18.0 T EX019372 PK04V05a 2004 11 23.83576 09 40 29.23 +35 37 05.4 EX019372 PK04V05a C2004 11 29.35139 09 42 40.01 +35 56 40.3 17.5 T EX019785 PK04V05a C2004 11 29.35625 09 42 40.16 +35 56 41.8 17.6 T EX019785 PK04V05a C2004 11 29.37581 09 42 40.68 +35 56 46.8 17.6 T EX019785 PK04V05a C2004 12 01.12559 09 43 15.90 +36 03 27.0 18.5 N EX019J95 PK04V05a C2004 12 01.14595 09 43 16.38 +36 03 30.8 18.8 N EX019J95 PK04V05a C2004 12 02.74407 09 43 45.93 +36 09 50.1 EX019349 PK04V05a C2004 12 02.75128 09 43 46.05 +36 09 52.1 EX019349 PK04V05a C2004 12 02.75850 09 43 46.16 +36 09 54.1 17.7 T EX019349 PK04V05a C2004 12 03.14569 09 43 52.85 +36 11 27.1 18.6 N EX019J95 PK04V05a C2004 12 03.15720 09 43 53.08 +36 11 29.6 18.7 N EX019J95 PK04V05a C2004 12 05.02091 09 44 23.42 +36 19 09.3 EX019246 PK04V05a C2004 12 05.02367 09 44 23.44 +36 19 09.9 EX019246 PK04V05a C2004 12 05.02648 09 44 23.47 +36 19 10.6 EX019246 PK04V05a C2004 12 05.02770 09 44 23.50 +36 19 11.1 EX019246 PK04V05a C2004 12 05.03044 09 44 23.53 +36 19 11.5 EX019246 PK04V05a C2004 12 05.03234 09 44 23.57 +36 19 11.8 EX019246 PK04V05a C2004 12 05.03546 09 44 23.56 +36 19 13.0 EX019246 PK04V05b C2004 11 17.19079 09 37 05.26 +35 17 11.7 18.5 N EX019204 PK04V05b C2004 11 17.19806 09 37 05.47 +35 17 13.0 EX019204 PK04V05b C2004 11 17.20534 09 37 05.70 +35 17 14.2 EX019204 PK04V05b C2004 11 19.78031 09 38 26.27 +35 24 47.4 18.5 T EX019D74 PK04V05b C2004 11 19.79420 09 38 26.66 +35 24 49.9 18.6 T EX019D74 PK04V05b C2004 11 21.05906 09 39 03.91 +35 28 42.1 19.8 N EX019130 PK04V05b C2004 11 21.06532 09 39 04.09 +35 28 43.2 19.4 N EX019130 PK04V05b C2004 11 21.12916 09 39 05.74 +35 28 54.5 18.5 N EX019A32 PK04V05b C2004 11 21.14037 09 39 06.04 +35 28 55.8 18.1 N EX019A32 PK04V05b C2004 11 21.15157 09 39 06.25 +35 28 58.9 18.0 N EX019A32 PK04V05b C2004 11 21.16279 09 39 06.74 +35 29 00.8 18.3 N EX019A32 PK04V05b C2004 11 21.17399 09 39 06.96 +35 29 03.2 18.1 N EX019A32 PK04V05b 2004 11 23.81493 09 40 19.77 +35 37 39.3 18.1 T EX019372 PK04V05b C2004 12 01.12559 09 43 06.86 +36 04 06.9 EX019J95 PK04V05b C2004 12 01.14595 09 43 07.31 +36 04 13.4 19.2 N EX019J95 PK04V05b C2004 12 02.74407 09 43 36.66 +36 10 31.0 EX019349 PK04V05b C2004 12 02.75128 09 43 36.77 +36 10 32.9 EX019349 PK04V05b C2004 12 02.75850 09 43 36.90 +36 10 34.7 18.4 T EX019349 PK04V05b C2004 12 03.14569 09 43 43.68 +36 12 07.9 18.6 N EX019J95 PK04V05b C2004 12 03.15720 09 43 43.79 +36 12 11.6 18.5 N EX019J95 PK04V05b C2004 12 05.02091 09 44 14.08 +36 19 50.8 EX019246 PK04V05b C2004 12 05.02367 09 44 14.12 +36 19 51.4 EX019246 PK04V05b C2004 12 05.02648 09 44 14.16 +36 19 51.9 EX019246 PK04V05b C2004 12 05.02770 09 44 14.20 +36 19 52.6 EX019246 PK04V05b C2004 12 05.03044 09 44 14.20 +36 19 53.0 EX019246 PK04V05b C2004 12 05.03234 09 44 14.29 +36 19 53.7 EX019246 PK04V05b C2004 12 05.03546 09 44 14.35 +36 19 54.6 EX019246 Observer details: 130 Lumezzane. Observers C. Cremaschini, S. Foglia, W. Marinello, M. Micheli, G. Pizzetti. Measurers M. Micheli, G. Pizzetti. 0.40-m f/4.5 reflector + CCD. 204 Schiaparelli Observatory. Observer L. Buzzi. 0.60-m f/3.34 Newtonian reflector + CCD. 246 Klet Observatory-KLENOT. Observers M. Tichy, J. Ticha. Measurer M. Tichy. 1.06-m KLENOT Telescope + CCD. 349 Ageo. Observer K. Kadota. 0.25-m f/5.0 reflector + CCD. 372 Geisei. Observer T. Seki. 0.60-m f/3.5 reflector. 785 Fitz-Randolph Observatory, Princeton. Observer J. Maffei. 0.91-m f/13.6 Cassegrain + CCD. A32 Panker. Observer H. Denzau. 0.36-m f/5.5 Schmidt-Cassegrain + CCD. D74 Nakagawa. Observers H. Hori, H. Maeno. 1.13-m f/6.75 reflector + CCD. J95 Great Shefford. Observer P. Birtwhistle. 0.30-m f/6.3 Schmidt-Cassegrain + CCD. Orbital elements: P/2004 V5-A (LINEAR-Hill) Epoch 2005 Mar. 11.0 TT = JDT 2453440.5 T 2005 Feb. 28.75263 TT MPC q 4.4108466 (2000.0) P Q n 0.04396037 Peri. 87.69165 -0.67198153 -0.69859176 a 7.9511228 Node 47.85887 +0.47597475 -0.66167360 e 0.4452549 Incl. 19.35820 +0.56735250 -0.27231894 P 22.42 From 92 observations 2003 Dec. 17-2004 Dec. 5, mean residual 0".65. Brian G. Marsden (C) Copyright 2004 MPC M.P.E.C. 2004-X19


Enter an MPEC number in one of the following forms:
- 1997-B01 (the full form)
- J97B01 (the packed version of the full form)
- B01 (the abbreviated form)